Regional Weather Roundup
Issued by NWS Upton, NY

Home | Current Version | Previous Version | Text Only | Print | Product List | Glossary On
Versions: 1 2 3 4 5 6 7 8 9 10 11 12 13 14 15 16 17 18 19 20 21 22 23 24 25 26 27 28 29 30 31 32 33 34 35 36 37 38 39 40 41 42 43 44 45 46 47 48 49 50
000
ASUS41 KOKX 290209
RWROKX

REGIONAL WEATHER ROUNDUP
NATIONAL WEATHER SERVICE NEW YORK NY
1000 PM EDT WED JUN 28 2017

NOTE: "FAIR" INDICATES FEW OR NO CLOUDS BELOW 12,000 FEET WITH NO
SIGNIFICANT WEATHER AND/OR OBSTRUCTIONS TO VISIBILITY.

NYZ071-072-176-178-NJZ106-104-290300-
NEW YORK CITY METRO AREA

CITY           SKY/WX    TMP DP  RH WIND       PRES   REMARKS
Central Park   CLOUDY    75  49  39 VRB3      30.13R
Bronx Bot Gard   N/A     75  48  38 S3        30.11S
LaGuardia APRT CLOUDY    77  51  40 W13       30.10R
Kennedy INTL   CLOUDY    69  62  78 S10       30.12R
Breezy Point     N/A     66 N/A N/A S7          N/A
Newark/Liberty MOCLDY    74  50  42 SW12      30.10R
Teterboro      MOCLDY    74  51  44 SW9       30.09R
$$

NYZ177-179-078>081-290300-
LONG ISLAND NEW YORK

CITY           SKY/WX    TMP DP  RH WIND       PRES   REMARKS
Jones Beach      N/A     66 N/A N/A SW5         N/A
Matinecock PT    N/A    N/A N/A N/A S3          N/A
Farmingdale    CLEAR     69  56  62 SW8       30.11R
MacArthur/ISP  MOCLDY    69  57  65 SW9       30.11R
Shirley        CLEAR     68  60  75 SW7       30.12S
Mt Sinai Harb    N/A     68 N/A N/A S7          N/A
Westhampton    PTCLDY    66  59  78 SW7       30.14R
East Hampton   FAIR      65  59  79 SW8       30.12R
Montauk          N/A     67  61  81 SW8       30.13R
$$

NYZ052-065-067-290300-
HUDSON VALLEY

CITY           SKY/WX    TMP DP  RH WIND       PRES   REMARKS
White Plains   CLOUDY    65  55  70 S3        30.10R
Larchmont Harb   N/A     68 N/A N/A S8          N/A
Croton O-T Hud   N/A     70 N/A N/A E1          N/A
Newburgh       CLEAR     70  54  56 CALM      30.10R
Montgomery     CLOUDY    63  55  75 CALM      30.09R
Poughkeepsie   CLOUDY    62  53  72 CALM      30.07R
Albany         CLOUDY    64  53  67 CALM      30.07R
$$

NJZ001-105-106-008-010-013-015-019>022-104-290300-
NEW JERSEY

CITY           SKY/WX    TMP DP  RH WIND       PRES   REMARKS
Newark/Liberty MOCLDY    74  50  42 SW12      30.10R
Teterboro      MOCLDY    74  51  44 SW9       30.09R
Caldwell       MOCLDY    73  52  47 SW3       30.11R
Somerville     MOCLDY    64  56  75 CALM      30.10R
Linden         FAIR      74  47  38 W5        30.11R
Perth Amboy      N/A     72 N/A N/A SW7         N/A
Sussex         CLOUDY    62  57  83 CALM      30.11R
Andover          N/A     62  56  80 CALM      30.12R
Trenton        PTCLDY    71  51  49 SW6       30.12R
Millville      PTCLDY    68  59  73 S5        30.16R
Atlantic City  PTCLDY    68  52  56 SW8       30.16R
Wrightstown    PTCLDY    66  54  65 SW7       30.11R
Toms River     CLOUDY    63  53  70 S6        30.14R
Belmar         MOCLDY    68  55  63 S5        30.14R
$$

PAZ047>061-062-071-290300-
EASTERN PENNSYLVANIA

CITY           SKY/WX    TMP DP  RH WIND       PRES   REMARKS
Philadelphia   MOCLDY    73  52  47 S10       30.15R
Allentown      CLOUDY    68  51  54 S7        30.12R
Scranton       CLOUDY    69  50  50 SW5       30.10R
$$

CTZ002-004>006-009-010-012-RIZ004-006-007-MAZ004-011-015-290300-
SOUTHERN NEW ENGLAND
 IN CT

CITY           SKY/WX    TMP DP  RH WIND       PRES   REMARKS
Bradley INTL   MOCLDY    64  55  72 CALM      30.08R
Hartford       CLEAR     65  56  72 S6        30.08R
Danbury        NOT AVBL
Wtrbury/Oxford CLEAR     64  48  55 CALM      30.11S
Bridgeport     CLEAR     71  58  63 SW9       30.10R
Meriden        CLEAR     63  55  75 S5        30.10R
New Haven      CLEAR     69  59  70 SW8       30.11R
Chester        FAIR      66  59  77 SW7       30.12R
Groton         CLEAR     66  59  78 VRB5      30.11R
Wilimantic     CLEAR     64  57  78 CALM      30.10R

 IN RI

CITY           SKY/WX    TMP DP  RH WIND       PRES   REMARKS
Providence     PTCLDY    66  54  65 SW6       30.10R
Block Island   CLEAR     65  60  84 SW13      30.12R
Westerly       CLEAR     68  59  73 VRB7      30.12R
 IN MA

CITY           SKY/WX    TMP DP  RH WIND       PRES   REMARKS
Boston         PTCLDY    70  50  49 SW7       30.07R
Worcester      CLEAR     62  48  60 SW8       30.11R
Westfield      CLEAR     60  56  86 CALM      30.07R
Provincetown   PTCLDY    65  61  87 SW13      30.09R
Nantucket      CLEAR     64  61  90 SW13      30.12R
$$

ANZ330-335-338-340-345-350-353-355-290300-
COASTAL MARINE OBSERVATIONS


STATION/POSITION TIME  SKY/WX   TEMP    WIND        PRES    VSBY  WAVE
                                AIR SEA DIR/SP/G                  HT/PER
                 (UTC)          (F)     (DEG/KT/KT) (MB)    (MI)  (FT/S)
NY HARB ENTRANCE 0150            69 68  210/ 16/ 19 1019.3          3/ 5
20 S FIRE ISLAND 0150            70 69  220/ 17/ 21 1019.3          4/ 5
GREAT SOUTH BAY  0130            70 75  230/ 17/ 21   N/A
23 SSW MONTAUK P 0150            68 66              1020.3          3/ 4
15 E BARNEGAT LI 0130               67                N/A           3/ 4
HUDSON CANYON    0150            69 69  220/ 16/ 17 1020.9          2/ 4
KINGS POINT      0130            70 66  190/  7/  9 1019.0
EXECUTION ROCKS  0145            70     170/  8/ 10   N/A
CENTRAL LI SOUND 0145            69     210/ 17/ 19   N/A           1
EASTERN LI SOUND NOT AVBL
ROBBINS REEF     0130                   230/ 10/ 12 1019.6
$$


>>>>>>>>>>>>>>>>>>>>>>>>>>>> KEY <<<<<<<<<<<<<<<<<<<<<<<<<<<
>                                                          <
>     SKY/WX - Sky Condition/Present Weather               <
>     TMP    - Temperature in Fahrenheit                   <
>     DP     - Dew Point in Fahrenheit                     <
>     RH     - Relative Humidity in Percent                <
>     WIND   - Direction (from) and Speed in MPH           <
>     PRES   - Mean Sea Level Pressure (inches of Hg)      <
>     WCI    - Wind Chill Index                            <
>     VSB    - VISIBILITY IN MILES                         <
>     HX     - HEAT INDEX                                  <
>     TC     - TEMPERATURE IN CELSIUS                      <
>     VRB    - VARIABLE WIND DIRECTION                     <
>                                                          <
>>>>>>>>>>>>>>>>>>>>>>>>>>>> KEY <<<<<<<<<<<<<<<<<<<<<<<<<<<



USA.gov is the U.S. government's official web portal to all federal, state and local government web resources and services.